Weather in Petrokamenskoe

Russia / Sverdlovsk Oblast     57°43′01″N   60°38′08″E
temp.,
°C
wind,
m/s
gust,
m/s
humid.,
%
clouds,
%
prec.,
mm/h
press.,
hPa
HPBL,
m
26 july, mon
mon2623:00+12nw265919 0.0 1017195
02:00+7wnw26795 0.0 1019117
05:00+7w278052 0.0 1019121
08:00+12w3962100 0.0 1018528
11:00+17wnw5739100 0.0 10172452
14:00+17wnw464778 0.0 10171744
17:00+19w474271 0.0 10162252
20:00+15w246421 0.0 1015129
27 july, tue
tue2723:00+10wsw310845 0.0 1015251
02:00+9sw3108698 0.0 1014215
05:00+11sw4127812 0.0 1012359
08:00+14wsw5127499 0.1 1011709
11:00+13wsw4985100 0.3 1011760
14:00+17wnw576390 0.5 10101449
17:00+19w484693 0.8 10092131
20:00+15nw585740 0.0 10101034
28 july, wed
wed2823:00+8wnw38835 0.0 1011159
02:00+6w38905 0.0 1011170
05:00+6w3108997 0.0 1011258
08:00+11w4968100 0.0 1009974
11:00+13wnw6106193 0.3 10081661
14:00+14wnw594679 0.5 10091942
17:00+13nw464952 0.5 10101310
20:00+12wnw475837 0.0 1011955
29 july, thu
thu2923:00+7w2477100 0.0 101175
02:00+7wsw2675100 0.0 1010130
05:00+7w1496100 1.5 1010128
08:00+9s249282 0.6 1009232
11:00+16wnw366473 0.6 10081157
14:00+19wnw495289 0.6 10071844
17:00+19wnw495573 0.8 10061786
20:00+13ssw239759 4.8 100668
30 july, fri
fri3023:00+12ssw2599100 6.9 1005117
02:00+12wsw299879 0.2 1005227
05:00+12wsw2898100 0.4 1005192
08:00+15wsw3691100 0.3 1005327
11:00+20w3567100 0.4 1005891
14:00+23sw345818 0.4 10041448
17:00+24sw345299 0.6 10031578
20:00+18w248887 0.8 100381